Location: Anglesey
(53.1800°N, 4.2200°W)
Time: 09:54:00
(UTC+01:00)

Envisat - Pass Details

Date: 09 October 2017
Orbit: 764 x 766 km, 98.2° (Epoch: 19 October)

Event Time Altitude Azimuth Distance (km) Brightness Sun altitude
Exits shadow 20:03:48 16° 131° (SE) 1,930 4.6 -14.2°
Maximum altitude 20:07:34 43° 65° (ENE) 1,066 3.4 -14.7°
Drops below altitude 10° 20:12:22 10° 355° (N) 2,316 5.7 -15.4°
Sets 20:14:46 0° 349° (N) 3,246 6.5 -15.8°
